"Pseudo-MPEC" for P21Yb5A

Created 2024 Sep 11 1:22:20 UT using Find_Orb

Click here for an explanation of pseudo-MPECs

 
 Astrometry: 
     P21Yb5A  C2024 09 01.34722322 21 57.166+18 44 48.51   ~97Dq 21.77wXNEOCPF52
     P21Yb5A  C2024 09 01.36042822 21 55.936+18 44 50.23   ~97Dq 22.35wXNEOCPF52
     P21Yb5A  C2024 09 01.37367822 21 54.702+18 44 52.02   ~97Dq 22.44wXNEOCPF52
     P21Yb5A  C2024 09 01.38708322 21 53.459+18 44 53.71   ~97Dq 22.32wXNEOCPF52
     P21Yb5A* C2024 09 07.32567922 13 07.910+18 49 23.99   ~97A7 22.27wXNEOCPF52
     P21Yb5A  C2024 09 07.35342422 13 05.419+18 49 23.38   ~97A7 22.14wXNEOCPF52
     P21Yb5A  C2024 09 07.36747522 13 04.160+18 49 23.04   ~97A7 22.19wXNEOCPF52
     P21Yb5A  C2024 09 07.44232922 12 57.461+18 49 20.78   ~97Gq 22.04GVNEOCPF52
     P21Yb5A  C2024 09 07.44298722 12 57.388+18 49 20.72   ~97Gq 22.12GVNEOCPF52

Station data:
(F52) Pan-STARRS 2, Haleakala  (N20.707382 W156.255910)  US/Hawaii.
   Observers J. Bulger, T. Dukes, T. Lowe, A. Schultz, M. Willman. Measurers
   K. Chambers, S. Chastel, T. de Boer, L. Denneau, J. Fairlamb, H.
   Flewelling, M. Huber, C.-C. Lin, E. Magnier, Y. Ramanjooloo, R. Wainscoat,
   R. Weryk. 1.8-m Ritchey-Chrétien + CCD.

Orbital elements:  P21Yb5A
   Perihelion 2023 Jun 18.12524 +/- 42.4 TT =  3:00:20 (JD 2460113.62524)
Epoch 2024 Sep  7.0 TT = JDT 2460560.5   Earth MOID: 0.7318      AutoNEOCP
M 178.43925089 +/- 16               (J2000 ecliptic)
n   0.39930483 +/- 0.00429          Peri.  228.71544 +/- 14
a   1.82641586 +/- 0.0131           Node   298.00279 +/- 0.9
e   0.0751711 +/- 0.0101            Incl.   19.05029 +/- 0.55
P   2.468/901.550d         H 19.86  G  0.15   U  9.1
q 1.68912204 +/- 0.0103    Q 1.96370968 +/- 0.0314
From 9 observations 2024 Sept. 1-7; mean residual 0".08
Residuals in arcseconds: 
240901 F52  .11-  .08-    240901 F52  .17+  .07+    240907 F52  .05-  .02+    
240901 F52  .06-  .05-    240907 F52  .03+  .04+    240907 F52  .15+  .02-    
240901 F52  .01+  .06+    240907 F52  .07-  .02+    240907 F52  .05-  .06-    

Ephemerides (geocentric):
Date (UTC) HH   RA             Dec           delta  r     elong  mag " sig PA
---- --------  ------------   ------------  ------ ------ -----  --- --------
2024 09 11 01  22 07 55.444   +18 45 07.17  1.0213 1.9637 151.1 22.2 12.5 136
2024 09 11 02  22 07 52.046   +18 45 02.57  1.0214 1.9637 151.0 22.2 12.7 136
2024 09 11 03  22 07 48.651   +18 44 57.94  1.0215 1.9637 151.0 22.2 12.9 136
2024 09 11 04  22 07 45.258   +18 44 53.27  1.0216 1.9637 151.0 22.2 13.1 136
2024 09 11 05  22 07 41.867   +18 44 48.56  1.0217 1.9637 151.0 22.2 13.3 136
2024 09 11 06  22 07 38.480   +18 44 43.81  1.0218 1.9637 151.0 22.2 13.5 136
2024 09 11 07  22 07 35.094   +18 44 39.03  1.0219 1.9637 151.0 22.2 13.7 136
2024 09 11 08  22 07 31.712   +18 44 34.22  1.0219 1.9637 150.9 22.2 13.9 136
2024 09 11 09  22 07 28.331   +18 44 29.36  1.0220 1.9637 150.9 22.2 14.1 136
2024 09 11 10  22 07 24.954   +18 44 24.47  1.0221 1.9637 150.9 22.2 14.3 136
2024 09 11 11  22 07 21.579   +18 44 19.55  1.0222 1.9637 150.9 22.2 14.5 136
2024 09 11 12  22 07 18.206   +18 44 14.59  1.0223 1.9637 150.9 22.2 14.7 136
2024 09 11 13  22 07 14.837   +18 44 09.59  1.0224 1.9637 150.9 22.2 14.9 136
2024 09 11 14  22 07 11.469   +18 44 04.56  1.0225 1.9637 150.8 22.2 15.1 136
2024 09 11 15  22 07 08.105   +18 43 59.49  1.0226 1.9637 150.8 22.2 15.4 136
2024 09 11 16  22 07 04.743   +18 43 54.38  1.0227 1.9637 150.8 22.2 15.6 136
2024 09 11 17  22 07 01.383   +18 43 49.24  1.0227 1.9637 150.8 22.2 15.8 136
2024 09 11 18  22 06 58.026   +18 43 44.06  1.0228 1.9637 150.8 22.2 16.0 136
2024 09 11 19  22 06 54.672   +18 43 38.85  1.0229 1.9637 150.8 22.2 16.2 135
2024 09 11 20  22 06 51.321   +18 43 33.60  1.0230 1.9637 150.7 22.2 16.4 135
2024 09 11 21  22 06 47.972   +18 43 28.32  1.0231 1.9637 150.7 22.2 16.7 135
2024 09 11 22  22 06 44.626   +18 43 23.00  1.0232 1.9637 150.7 22.2 16.9 135
2024 09 11 23  22 06 41.282   +18 43 17.65  1.0233 1.9637 150.7 22.2 17.1 135
2024 09 12 00  22 06 37.942   +18 43 12.26  1.0234 1.9637 150.7 22.2 17.3 135
2024 09 12 01  22 06 34.604   +18 43 06.83  1.0235 1.9637 150.6 22.2 17.6 135
2024 09 12 02  22 06 31.268   +18 43 01.37  1.0236 1.9637 150.6 22.2 17.8 135
2024 09 12 03  22 06 27.935   +18 42 55.88  1.0237 1.9637 150.6 22.2 18.0 135
2024 09 12 04  22 06 24.605   +18 42 50.35  1.0238 1.9637 150.6 22.2 18.2 135
2024 09 12 05  22 06 21.278   +18 42 44.78  1.0239 1.9637 150.6 22.2 18.5 135
2024 09 12 06  22 06 17.953   +18 42 39.18  1.0240 1.9637 150.6 22.2 18.7 135
2024 09 12 07  22 06 14.632   +18 42 33.54  1.0241 1.9637 150.5 22.2 18.9 135
2024 09 12 08  22 06 11.312   +18 42 27.87  1.0242 1.9637 150.5 22.2 19.2 135
2024 09 12 09  22 06 07.996   +18 42 22.16  1.0243 1.9637 150.5 22.2 19.4 135
2024 09 12 10  22 06 04.682   +18 42 16.42  1.0243 1.9637 150.5 22.2 19.6 135
2024 09 12 11  22 06 01.371   +18 42 10.65  1.0244 1.9637 150.5 22.2 19.9 135
2024 09 12 12  22 05 58.063   +18 42 04.84  1.0245 1.9637 150.4 22.2 20.1 135
2024 09 12 13  22 05 54.758   +18 41 58.99  1.0246 1.9637 150.4 22.2 20.4 135
2024 09 12 14  22 05 51.455   +18 41 53.11  1.0247 1.9637 150.4 22.2 20.6 135
2024 09 12 15  22 05 48.155   +18 41 47.20  1.0248 1.9637 150.4 22.2 20.8 135
2024 09 12 16  22 05 44.858   +18 41 41.25  1.0249 1.9637 150.4 22.2 21.1 135
2024 09 12 17  22 05 41.564   +18 41 35.27  1.0250 1.9637 150.4 22.2 21.3 135
2024 09 12 18  22 05 38.273   +18 41 29.25  1.0251 1.9637 150.3 22.2 21.6 135
2024 09 12 19  22 05 34.984   +18 41 23.20  1.0252 1.9637 150.3 22.2 21.8 134
2024 09 12 20  22 05 31.698   +18 41 17.11  1.0253 1.9637 150.3 22.2 22.1 134
2024 09 12 21  22 05 28.415   +18 41 10.99  1.0254 1.9637 150.3 22.2 22.3 134
2024 09 12 22  22 05 25.135   +18 41 04.83  1.0255 1.9637 150.3 22.2 22.6 134
2024 09 12 23  22 05 21.858   +18 40 58.64  1.0256 1.9637 150.2 22.2 22.8 134
2024 09 13 00  22 05 18.583   +18 40 52.42  1.0257 1.9637 150.2 22.2 23.1 134